Regional Weather Roundup
Issued by NWS

Home | Current Version | Previous Version | Graphics & Text | Print | Product List | Glossary On
Versions: 1 2 3 4 5 6 7 8 9 10 11 12 13 14 15 16 17 18 19 20 21 22 23 24 25 26 27 28 29 30 31 32 33 34 35 36 37 38 39 40 41 42 43 44 45 46 47 48 49 50
000
ASUS45 KPSR 031710
RWRAZ

ARIZONA HOURLY REGIONAL WEATHER ROUNDUP
NATIONAL WEATHER SERVICE PHOENIX AZ
1000 AM MST FRI JUL 03 2015

NOTE: FAIR INDICATES FEW OR NO CLOUDS BELOW 12,000 FEET WITH NO
SIGNIFICANT WEATHER AND/OR OBSTRUCTIONS TO VISIBILITY.

AZZ001>003-036-031800-
NORTHWEST ARIZONA

CITY           SKY/WX    TMP DP  RH WIND       PRES   REMARKS
BULLHEAD CITY  PTSUNNY  100  54  20 SW8       29.82S
KINGMAN        SUNNY     95  50  21 SW14      30.03R
$$

AZZ004>008-015-016-018-031800-
NORTH CENTRAL ARIZONA

CITY           SKY/WX    TMP DP  RH WIND       PRES   REMARKS
GRAND CANYON     N/A    N/A N/A N/A MISG        N/A
WILLIAMS       MOSUNNY   75  54  46 SW10      30.35S
PRESCOTT       CLOUDY    78  56  46 SW10      30.17F
FLAGSTAFF      PTSUNNY   71  55  56 S13       30.31S
PAYSON         CLOUDY    77  55  47 VRB3      30.20F
PAGE           CLOUDY    84  51  31 NW5       30.05S
$$

AZZ009>014-017-031800-
NORTHEAST ARIZONA

CITY           SKY/WX    TMP DP  RH WIND       PRES   REMARKS
WINSLOW        PTSUNNY   85  54  34 SW16      30.12F
SAINT JOHNS    MOSUNNY   81  53  37 SW8G20    30.19F
SHOW LOW       PTSUNNY   72  54  53 S15       30.28S
$$

AZZ023-031800-
GREATER PHOENIX AREA

CITY           SKY/WX    TMP DP  RH WIND       PRES   REMARKS
PHOENIX        CLOUDY    89  64  43 VRB3      29.89F
BUCKEYE        CLOUDY    90  64  43 E10       29.90S
GLENDALE       PTSUNNY   88  64  45 VRB5      29.92F
LUKE AFB       CLOUDY    88  64  45 NE6       29.89F
DEER VALLEY    CLOUDY    86  63  45 SW3       29.92F
SCOTTSDALE     CLOUDY    87  63  44 NW3       29.93F
MESA-FALCON    CLOUDY    86  63  45 NW9       29.91F
MESA-GATEWAY   CLOUDY    86  66  51 N6        29.92F
CHANDLER       PTSUNNY   84  68  58 E6        29.91S
$$

AZZ027-028-031800-
SOUTHWEST MARICOPA COUNTY AND PINAL COUNTY

CITY           SKY/WX    TMP DP  RH WIND       PRES   REMARKS
CASA GRANDE    CLOUDY    82  66  57 NE9       29.90S
GILA BEND      FAIR      96  60  29 N9G17     29.85F
$$

AZZ503-504-507>509-031800-
SOUTHEAST ARIZONA

CITY           SKY/WX    TMP DP  RH WIND       PRES   REMARKS
TUCSON         CLOUDY    89  58  34 NE6       30.00R
DAVIS-MONTHAN  CLOUDY    87  61  42 NE10      29.98R
RYAN FIELD     SUNNY     90  59  35 S6        29.97R
NOGALES        CLOUDY    81  60  48 CALM      30.07S
SIERRA VISTA   CLOUDY    78  55  44 SE6       30.14F
DOUGLAS        MOSUNNY   82  58  43 NE8       30.10F
SAFFORD        CLOUDY    77  66  68 VRB5      30.04F
$$

AZZ020-021-025-026-031-031800-
SOUTHWEST ARIZONA

CITY           SKY/WX    TMP DP  RH WIND       PRES   REMARKS
YUMA           MOSUNNY   97  53  22 W7        29.82S
$$

CAZ031-033-041-043-047-048-061-031800-
SOUTHERN CALIFORNIA

CITY           SKY/WX    TMP DP  RH WIND       PRES   REMARKS
DOWNTOWN L.A.  SUNNY     73  62  68 CALM      29.97S
L.A. AIRPORT   CLOUDY    66  62  87 W7        29.99S
SAN DIEGO      CLOUDY    69  60  73 W6        29.99S
BURBANK        SUNNY     76  58  53 E10G17    29.97S
ONTARIO        PTSUNNY   79  55  43 W6        29.97S
RIVERSIDE      SUNNY     79  58  48 VRB5      29.97S
PALM SPRINGS   MOSUNNY   98  54  22 NW12      29.84S
EL CENTRO NAS  MOSUNNY   98  48  18 SW5       29.81F
IMPERIAL       MOSUNNY   96  57  27 W5        29.79F
BLYTHE         PTSUNNY   96  62  32 E7        29.82R
NEEDLES        PTSUNNY  102  51  18 S9        29.84R
$$

NVZ020-UTZ003-031800-
SOUTHERN NEVADA-UTAH

CITY           SKY/WX    TMP DP  RH WIND       PRES   REMARKS
LAS VEGAS      PTSUNNY   98  51  20 S6        29.86F
SALT LAKE CITY MOSUNNY   89  47  23 SE6       30.02S
$$

NMZ009-TXZ055-031800-
NEW MEXICO-WEST TEXAS

CITY           SKY/WX    TMP DP  RH WIND       PRES   REMARKS
ALBUQUERQUE    PTSUNNY   77  57  50 SW5       30.21S
EL PASO        CLOUDY    85  57  38 N12       30.06F
$$


........................KEY........................
SKY/WX - SKY CONDITION/WEATHER
TMP    - TEMPERATURE IN FAHRENHEIT
DP     - DEW POINT IN FAHRENHEIT
RH     - RELATIVE HUMIDITY IN PERCENT
WIND   - DIRECTION AND SPEED IN MILES PER HOUR (MPH)
VRB    - VARIABLE WIND DIRECTION
PRES   - MEAN SEA LEVEL PRESSURE IN INCHES OF MERCURY
         F - FALLING PRESSURE   R - RISING PRESSURE
         S - STEADY PRESSURE
VSB    - VISIBILITY IN MILES
HX     - HEAT INDEX IN FAHRENHEIT
WCI    - WIND CHILL INDEX IN FAHRENHEIT
TC     - TEMPERATURE IN CELSIUS WHICH IS ALSO KNOWN AS
         TEMPERATURE IN CENTIGRADE
AFB    - AIR FORCE BASE
         LUKE AFB IS LUKE AIR FORCE BASE
         DAVIS-MONTHAN IS DAVIS-MONTHAN AIR FORCE BASE
NAS    - NAVAL AIR STATION
         EL CENTRO NAS IS EL CENTRO NAVAL AIR STATION
N/A    - NOT AVAILABLE




USA.gov is the U.S. government's official web portal to all federal, state and local government web resources and services.